Location: Aranbee
(34.0885°N, 118.2342°W)
Time: 11:49:41
(UTC+00:00)

Tiros 1 despin weight - Visible Passes

Search period start: 30 November 2020 00:00
Search period end: 10 December 2020 00:00
Orbit: 593 x 642 km, 48.2° (Epoch: 29 November)

Date Brightness Start Highest point End Pass type
(mag) Time Alt. Az. Time Alt. Az. Time Alt. Az.
30 Nov ? 02:05:03 10° NW 02:09:42 74° SW 02:13:32 15° SE visible
01 Dec ? 02:21:46 10° WNW 02:26:00 35° SW 02:30:09 10° SSE visible
02 Dec ? 02:39:12 10° W 02:42:08 17° SW 02:45:01 10° SSW visible
03 Dec ? 01:12:49 10° WNW 01:17:23 54° SW 01:21:53 10° SE visible
04 Dec ? 01:29:44 10° WNW 01:33:36 26° SW 01:37:26 10° S visible
05 Dec ? 01:47:59 10° WSW 01:49:42 12° SW 01:51:24 10° SSW visible
09 Dec ? 13:34:16 10° SSE 13:36:39 14° SE 13:39:03 10° E visible
